Bradford, PA

1:02 PM EDT on July 24, 2017 (GMT -0400)
Bradford Regional

Weather History for KBFD - October, 2013

Change the Weather History Date:

Thursday, October 3, 2013

  Actual Average Record
Temperature  
Mean Temperature 57 °F 50 °F  
Max Temperature 73 °F 62 °F 78 °F (1959)
Min Temperature 40 °F 39 °F 19 °F (1974)
Degree Days  
Heating Degree Days 8 10  
Month to date heating degree days 14 30  
Since 1 July heating degree days 390 447  
Cooling Degree Days 0 0  
Month to date cooling degree days 0 0  
Year to date cooling degree days 325 192  
Growing Degree Days 6 (Base 50)    
Moisture  
Dew Point 50 °F    
Average Humidity 78    
Maximum Humidity 96    
Minimum Humidity 59    
Precipitation  
Precipitation 0.00 in 0.12 in 1.97 in (1986)
Month to date precipitation 0.00 0.36  
Year to date precipitation 23.94 34.23  
Sea Level Pressure  
Sea Level Pressure 30.12 in    
Wind  
Wind Speed 3 mph (South)    
Max Wind Speed 12 mph    
Max Gust Speed 15 mph    
Visibility 5 miles    
Events Fog    
T = Trace of Precipitation, MM = Missing Value Source: NWS Daily Summary

Daily Weather History Graph

Daily Weather History Graph

Search for Another Location

Airport or City:

Trip Planner

Search our weather history database for the weather conditions in past years. The results will help you decide how hot, cold, wet, or windy it might be!

Date:

Astronomy

Oct. 03, 2013 Rise Set
Actual Time 7:13 AM EDT 6:52 PM EDT
Civil Twilight 6:46 AM EDT 7:20 PM EDT
Nautical Twilight 6:13 AM EDT 7:52 PM EDT
Astronomical Twilight 5:41 AM EDT 8:24 PM EDT
Moon 5:44 AM EDT (10/3) 6:00 PM EDT (10/3)
Length of Visible Light 12h 34m
Length of Day
11h 38m
Waning Crescent, 2% of the Moon is Illuminated
Oct 3
Waning Crescent
Oct 4
New
Oct 11
First Quarter
Oct 18
Full
Oct 26
Last Quarter

Hourly Weather History & Observations

Time (EDT) Temp. Windchill Dew Point Humidity Pressure Visibility Wind Dir Wind Speed Gust Speed Precip Events Conditions
12:53 AM 48.9 °F - 44.1 °F 83% 30.11 in 10.0 mi Calm Calm - N/A   Clear
1:53 AM 46.9 °F - 44.1 °F 90% 30.12 in 8.0 mi Calm Calm - N/A   Clear
2:53 AM 45.0 °F - 42.1 °F 90% 30.12 in 8.0 mi Calm Calm - N/A   Clear
3:53 AM 45.0 °F - 42.1 °F 90% 30.12 in 7.0 mi Calm Calm - N/A   Clear
4:53 AM 43.0 °F - 39.9 °F 89% 30.13 in 10.0 mi Calm Calm - N/A   Clear
5:37 AM 42.1 °F - 39.0 °F 89% 30.14 in 1.8 mi Calm Calm - N/A   Partly Cloudy
5:40 AM 43.0 °F - 39.9 °F 89% 30.14 in 0.8 mi Calm Calm - N/A   Mist
5:48 AM 42.8 °F - 39.2 °F 87% 30.14 in 1.2 mi Calm Calm - N/A   Scattered Clouds
5:53 AM 42.1 °F - 39.9 °F 92% 30.14 in 1.5 mi Calm Calm - N/A   Scattered Clouds
5:57 AM 42.1 °F - 39.9 °F 92% 30.15 in 0.8 mi Calm Calm - N/A   Mist
6:03 AM 42.1 °F - 39.9 °F 92% 30.15 in 1.2 mi Calm Calm - N/A   Partly Cloudy
6:11 AM 42.1 °F - 39.0 °F 89% 30.15 in 0.8 mi Calm Calm - N/A   Mist
6:27 AM 42.1 °F - 39.9 °F 92% 30.15 in 1.2 mi Calm Calm - N/A   Scattered Clouds
6:33 AM 41.0 °F - 39.0 °F 93% 30.15 in 1.0 mi Calm Calm - N/A   Mist
6:42 AM 39.9 °F - 37.9 °F 93% 30.15 in 0.8 mi Calm Calm - N/A   Mist
6:53 AM 41.0 °F - 37.9 °F 89% 30.15 in 0.5 mi Calm Calm - N/A Fog Fog
7:22 AM 42.1 °F - 39.9 °F 92% 30.16 in 0.2 mi Calm Calm - N/A Fog Fog
7:40 AM 41.0 °F - 39.0 °F 93% 30.16 in 0.8 mi Calm Calm - N/A   Mist
7:44 AM 41.0 °F - 39.0 °F 93% 30.16 in 1.2 mi Calm Calm - N/A   Partly Cloudy
7:53 AM 41.0 °F - 39.0 °F 93% 30.16 in 5.0 mi Calm Calm - N/A   Clear
8:16 AM 44.1 °F 42.5 °F 42.1 °F 93% 30.16 in 1.8 mi ESE 3.5 mph - N/A   Clear
8:25 AM 45.0 °F 42.6 °F 43.0 °F 93% 30.15 in 3.0 mi SE 4.6 mph - N/A   Clear
8:53 AM 52.0 °F - 50.0 °F 93% 30.15 in 8.0 mi Calm Calm - N/A   Clear
9:53 AM 61.0 °F - 52.0 °F 72% 30.14 in 10.0 mi ESE 4.6 mph - N/A   Clear
10:53 AM 68.0 °F - 53.1 °F 59% 30.14 in 10.0 mi SSW 6.9 mph - N/A   Mostly Cloudy
11:53 AM 70.0 °F - 57.9 °F 65% 30.12 in 10.0 mi SW 8.1 mph - N/A   Partly Cloudy
12:53 PM 70.0 °F - 57.9 °F 65% 30.12 in 9.0 mi SSW 6.9 mph - N/A   Mostly Cloudy
1:53 PM 70.0 °F - 57.9 °F 65% 30.09 in 9.0 mi Calm Calm - N/A   Overcast
2:53 PM 73.0 °F - 60.1 °F 64% 30.07 in 10.0 mi Variable 4.6 mph - N/A   Mostly Cloudy
3:53 PM 72.0 °F - 60.1 °F 66% 30.06 in 9.0 mi SSW 10.4 mph - N/A   Mostly Cloudy
4:53 PM 71.1 °F - 61.0 °F 70% 30.06 in 10.0 mi South 10.4 mph - N/A   Scattered Clouds
5:53 PM 70.0 °F - 62.1 °F 76% 30.06 in 7.0 mi SSW 4.6 mph - N/A   Scattered Clouds
6:22 PM 69.1 °F - 61.0 °F 75% 30.08 in 6.0 mi Variable 5.8 mph - N/A   Haze
6:53 PM 68.0 °F - 61.0 °F 78% 30.08 in 6.0 mi South 3.5 mph - N/A   Haze
7:53 PM 66.0 °F - 62.1 °F 87% 30.08 in 6.0 mi Calm Calm - N/A   Scattered Clouds
8:53 PM 63.0 °F - 61.0 °F 93% 30.08 in 4.0 mi South 3.5 mph - N/A   Overcast
9:14 PM 64.0 °F - 61.0 °F 90% 30.10 in 4.0 mi Calm Calm - N/A   Overcast
9:27 PM 64.0 °F - 61.0 °F 90% 30.09 in 3.0 mi Calm Calm - N/A   Mostly Cloudy
9:53 PM 64.9 °F - 62.1 °F 90% 30.07 in 5.0 mi South 3.5 mph - N/A   Mostly Cloudy
10:13 PM 66.0 °F - 63.0 °F 90% 30.10 in 5.0 mi SSW 3.5 mph - N/A   Overcast
10:23 PM 66.0 °F - 63.0 °F 90% 30.10 in 5.0 mi SSW 3.5 mph - N/A   Mostly Cloudy
10:53 PM 66.0 °F - 63.0 °F 90% 30.07 in 6.0 mi Variable 5.8 mph - N/A   Overcast
11:13 PM 66.0 °F - 63.0 °F 90% 30.10 in 5.0 mi SSW 4.6 mph - N/A   Overcast